owner,sensor,date,latitude,longitude,vertical_datum,sea_water_practical_salinity,qcFlag 
DISL,ioos:station:DISL:MHPA:1,2017-06-01T00:00:00Z,30.6671,-87.9365,1.31,0.1,1111122 
DISL,ioos:station:DISL:MHPA:1,2017-06-01T00:30:00Z,30.6671,-87.9365,1.296,0.1,1111122 
DISL,ioos:station:DISL:MHPA:1,2017-06-01T01:00:00Z,30.6671,-87.9365,1.277,0.1,1111122 
DISL,ioos:station:DISL:MHPA:1,2017-06-01T01:30:00Z,30.6671,-87.9365,1.268,0.1,1111122 
DISL,ioos:station:DISL:MHPA:1,2017-06-01T02:00:00Z,30.6671,-87.9365,1.245,0.1,1111122 
DISL,ioos:station:DISL:MHPA:1,2017-06-01T02:30:00Z,30.6671,-87.9365,1.216,0.11,1111122 
DISL,ioos:station:DISL:MHPA:1,2017-06-01T03:00:00Z,30.6671,-87.9365,1.183,0.11,1111122 
DISL,ioos:station:DISL:MHPA:1,2017-06-01T03:30:00Z,30.6671,-87.9365,1.155,0.11,1111122 
DISL,ioos:station:DISL:MHPA:1,2017-06-01T04:00:00Z,30.6671,-87.9365,1.117,0.1,1111122 
DISL,ioos:station:DISL:MHPA:1,2017-06-01T04:30:00Z,30.6671,-87.9365,1.074,0.1,1111122 
DISL,ioos:station:DISL:MHPA:1,2017-06-01T05:00:00Z,30.6671,-87.9365,1.032,0.1,1111122 
DISL,ioos:station:DISL:MHPA:1,2017-06-01T05:30:00Z,30.6671,-87.9365,0.998,0.1,1111122 
DISL,ioos:station:DISL:MHPA:1,2017-06-01T06:00:00Z,30.6671,-87.9365,0.971,0.1,1111122 
DISL,ioos:station:DISL:MHPA:1,2017-06-01T06:30:00Z,30.6671,-87.9365,0.951,0.1,1111122 
DISL,ioos:station:DISL:MHPA:1,2017-06-01T07:00:00Z,30.6671,-87.9365,0.942,0.1,1111122 
DISL,ioos:station:DISL:MHPA:1,2017-06-01T07:30:00Z,30.6671,-87.9365,0.938,0.1,1111122 
DISL,ioos:station:DISL:MHPA:1,2017-06-01T08:00:00Z,30.6671,-87.9365,0.929,0.1,1111122 
DISL,ioos:station:DISL:MHPA:1,2017-06-01T08:30:00Z,30.6671,-87.9365,0.933,0.1,1111122 
DISL,ioos:station:DISL:MHPA:1,2017-06-01T09:00:00Z,30.6671,-87.9365,0.93,0.1,1111122 
DISL,ioos:station:DISL:MHPA:1,2017-06-01T09:30:00Z,30.6671,-87.9365,0.924,0.1,1111122 
DISL,ioos:station:DISL:MHPA:1,2017-06-01T10:00:00Z,30.6671,-87.9365,0.923,0.1,1111122 
DISL,ioos:station:DISL:MHPA:1,2017-06-01T10:30:00Z,30.6671,-87.9365,0.932,0.1,1111122 
DISL,ioos:station:DISL:MHPA:1,2017-06-01T11:00:00Z,30.6671,-87.9365,0.936,0.1,1111122 
DISL,ioos:station:DISL:MHPA:1,2017-06-01T11:30:00Z,30.6671,-87.9365,0.929,0.1,1111122 
DISL,ioos:station:DISL:MHPA:1,2017-06-01T12:00:00Z,30.6671,-87.9365,0.939,0.1,1111122 
DISL,ioos:station:DISL:MHPA:1,2017-06-01T12:30:00Z,30.6671,-87.9365,0.965,0.1,1111122 
DISL,ioos:station:DISL:MHPA:1,2017-06-01T13:00:00Z,30.6671,-87.9365,0.993,0.1,1111122 
DISL,ioos:station:DISL:MHPA:1,2017-06-01T13:30:00Z,30.6671,-87.9365,1.018,0.1,1111122 
DISL,ioos:station:DISL:MHPA:1,2017-06-01T14:00:00Z,30.6671,-87.9365,1.042,0.1,1111122 
DISL,ioos:station:DISL:MHPA:1,2017-06-01T14:30:00Z,30.6671,-87.9365,1.074,0.1,1111122 
DISL,ioos:station:DISL:MHPA:1,2017-06-01T15:00:00Z,30.6671,-87.9365,1.119,0.1,1111122 
DISL,ioos:station:DISL:MHPA:1,2017-06-01T15:30:00Z,30.6671,-87.9365,1.143,0.1,1111122 
DISL,ioos:station:DISL:MHPA:1,2017-06-01T16:00:00Z,30.6671,-87.9365,1.175,0.1,1111122 
DISL,ioos:station:DISL:MHPA:1,2017-06-01T16:30:00Z,30.6671,-87.9365,1.208,0.1,1111122 
DISL,ioos:station:DISL:MHPA:1,2017-06-01T17:00:00Z,30.6671,-87.9365,1.251,0.1,1111122 
DISL,ioos:station:DISL:MHPA:1,2017-06-01T17:30:00Z,30.6671,-87.9365,1.275,0.1,1111122 
DISL,ioos:station:DISL:MHPA:1,2017-06-01T18:00:00Z,30.6671,-87.9365,1.249,0.1,1111122 
DISL,ioos:station:DISL:MHPA:1,2017-06-01T18:30:00Z,30.6671,-87.9365,1.231,0.1,1111122 
DISL,ioos:station:DISL:MHPA:1,2017-06-01T19:00:00Z,30.6671,-87.9365,1.226,0.1,1111122 
DISL,ioos:station:DISL:MHPA:1,2017-06-01T19:30:00Z,30.6671,-87.9365,1.22,0.1,1111122 
DISL,ioos:station:DISL:MHPA:1,2017-06-01T20:00:00Z,30.6671,-87.9365,1.222,0.11,1111122 
DISL,ioos:station:DISL:MHPA:1,2017-06-01T20:30:00Z,30.6671,-87.9365,1.219,0.11,1111122 
DISL,ioos:station:DISL:MHPA:1,2017-06-01T21:00:00Z,30.6671,-87.9365,1.22,0.11,1111122 
DISL,ioos:station:DISL:MHPA:1,2017-06-01T21:30:00Z,30.6671,-87.9365,1.196,0.11,1111122 
DISL,ioos:station:DISL:MHPA:1,2017-06-01T22:00:00Z,30.6671,-87.9365,1.181,0.11,1111122 
DISL,ioos:station:DISL:MHPA:1,2017-06-01T22:30:00Z,30.6671,-87.9365,1.164,0.11,1111122 
DISL,ioos:station:DISL:MHPA:1,2017-06-01T23:00:00Z,30.6671,-87.9365,1.143,0.11,1111122 
DISL,ioos:station:DISL:MHPA:1,2017-06-01T23:30:00Z,30.6671,-87.9365,1.136,0.11,1111122 
DISL,ioos:station:DISL:MHPA:1,2017-06-02T00:00:00Z,30.6671,-87.9365,1.144,0.11,1111122 
DISL,ioos:station:DISL:MHPA:1,2017-06-02T00:30:00Z,30.6671,-87.9365,1.136,0.1,1111122 
DISL,ioos:station:DISL:MHPA:1,2017-06-02T01:00:00Z,30.6671,-87.9365,1.156,0.1,1111122 
DISL,ioos:station:DISL:MHPA:1,2017-06-02T01:30:00Z,30.6671,-87.9365,1.162,0.1,1111122 
DISL,ioos:station:DISL:MHPA:1,2017-06-02T02:00:00Z,30.6671,-87.9365,1.142,0.1,1111122 
DISL,ioos:station:DISL:MHPA:1,2017-06-02T02:30:00Z,30.6671,-87.9365,1.131,0.1,1111122 
DISL,ioos:station:DISL:MHPA:1,2017-06-02T03:00:00Z,30.6671,-87.9365,1.127,0.1,1111122 
DISL,ioos:station:DISL:MHPA:1,2017-06-02T03:30:00Z,30.6671,-87.9365,1.116,0.1,1111122 
DISL,ioos:station:DISL:MHPA:1,2017-06-02T04:00:00Z,30.6671,-87.9365,1.099,0.1,1111122 
DISL,ioos:station:DISL:MHPA:1,2017-06-02T04:30:00Z,30.6671,-87.9365,1.065,0.1,1111122 
DISL,ioos:station:DISL:MHPA:1,2017-06-02T05:00:00Z,30.6671,-87.9365,1.04,0.1,1111122 
DISL,ioos:station:DISL:MHPA:1,2017-06-02T05:30:00Z,30.6671,-87.9365,1.032,0.1,1111122 
DISL,ioos:station:DISL:MHPA:1,2017-06-02T06:00:00Z,30.6671,-87.9365,1.034,0.1,1111122 
DISL,ioos:station:DISL:MHPA:1,2017-06-02T06:30:00Z,30.6671,-87.9365,1.025,0.1,1111122 
DISL,ioos:station:DISL:MHPA:1,2017-06-02T07:00:00Z,30.6671,-87.9365,1.014,0.1,1111122 
DISL,ioos:station:DISL:MHPA:1,2017-06-02T07:30:00Z,30.6671,-87.9365,1.015,0.1,1111122 
DISL,ioos:station:DISL:MHPA:1,2017-06-02T08:00:00Z,30.6671,-87.9365,0.999,0.1,1111122 
DISL,ioos:station:DISL:MHPA:1,2017-06-02T08:30:00Z,30.6671,-87.9365,0.993,0.1,1111122 
DISL,ioos:station:DISL:MHPA:1,2017-06-02T09:00:00Z,30.6671,-87.9365,0.989,0.1,1111122 
DISL,ioos:station:DISL:MHPA:1,2017-06-02T09:30:00Z,30.6671,-87.9365,0.992,0.1,1111122 
DISL,ioos:station:DISL:MHPA:1,2017-06-02T10:00:00Z,30.6671,-87.9365,1.006,0.1,1111122 
DISL,ioos:station:DISL:MHPA:1,2017-06-02T10:30:00Z,30.6671,-87.9365,1.019,0.1,1111122 
DISL,ioos:station:DISL:MHPA:1,2017-06-02T11:00:00Z,30.6671,-87.9365,1.048,0.1,1111122 
DISL,ioos:station:DISL:MHPA:1,2017-06-02T11:30:00Z,30.6671,-87.9365,1.083,0.11,1111122 
DISL,ioos:station:DISL:MHPA:1,2017-06-02T12:00:00Z,30.6671,-87.9365,1.116,0.1,1111122 
DISL,ioos:station:DISL:MHPA:1,2017-06-02T12:30:00Z,30.6671,-87.9365,1.143,0.1,1111122 
DISL,ioos:station:DISL:MHPA:1,2017-06-02T13:00:00Z,30.6671,-87.9365,1.159,0.1,1111122 
DISL,ioos:station:DISL:MHPA:1,2017-06-02T13:30:00Z,30.6671,-87.9365,1.184,0.1,1111122 
DISL,ioos:station:DISL:MHPA:1,2017-06-02T14:00:00Z,30.6671,-87.9365,1.202,0.1,1111122 
DISL,ioos:station:DISL:MHPA:1,2017-06-02T14:30:00Z,30.6671,-87.9365,1.217,0.1,1111122 
DISL,ioos:station:DISL:MHPA:1,2017-06-02T17:00:00Z,30.6671,-87.9365,1.251,0.1,1111122 
DISL,ioos:station:DISL:MHPA:1,2017-06-02T17:30:00Z,30.6671,-87.9365,1.272,0.1,1111122 
DISL,ioos:station:DISL:MHPA:1,2017-06-02T18:00:00Z,30.6671,-87.9365,1.265,0.1,1111122 
DISL,ioos:station:DISL:MHPA:1,2017-06-02T18:30:00Z,30.6671,-87.9365,1.277,0.1,1111122 
DISL,ioos:station:DISL:MHPA:1,2017-06-02T19:00:00Z,30.6671,-87.9365,1.295,0.1,1111122 
DISL,ioos:station:DISL:MHPA:1,2017-06-02T19:30:00Z,30.6671,-87.9365,1.279,0.1,1111122 
DISL,ioos:station:DISL:MHPA:1,2017-06-02T20:00:00Z,30.6671,-87.9365,1.276,0.1,1111122 
DISL,ioos:station:DISL:MHPA:1,2017-06-02T20:30:00Z,30.6671,-87.9365,1.271,0.1,1111122 
DISL,ioos:station:DISL:MHPA:1,2017-06-02T21:00:00Z,30.6671,-87.9365,1.267,0.1,1111122 
DISL,ioos:station:DISL:MHPA:1,2017-06-02T21:30:00Z,30.6671,-87.9365,1.26,0.1,1111122 
DISL,ioos:station:DISL:MHPA:1,2017-06-02T22:00:00Z,30.6671,-87.9365,1.235,0.1,1111122 
DISL,ioos:station:DISL:MHPA:1,2017-06-02T22:30:00Z,30.6671,-87.9365,1.237,0.1,1111122 
DISL,ioos:station:DISL:MHPA:1,2017-06-02T23:00:00Z,30.6671,-87.9365,1.253,0.1,1111122 
DISL,ioos:station:DISL:MHPA:1,2017-06-02T23:30:00Z,30.6671,-87.9365,1.267,0.1,1111122 
DISL,ioos:station:DISL:MHPA:1,2017-06-03T00:00:00Z,30.6671,-87.9365,1.25,0.1,1111122 
DISL,ioos:station:DISL:MHPA:1,2017-06-03T00:30:00Z,30.6671,-87.9365,1.23,0.1,1111122 
DISL,ioos:station:DISL:MHPA:1,2017-06-03T01:00:00Z,30.6671,-87.9365,1.216,0.1,1111122 
DISL,ioos:station:DISL:MHPA:1,2017-06-03T01:30:00Z,30.6671,-87.9365,1.194,0.1,1111122 
DISL,ioos:station:DISL:MHPA:1,2017-06-03T02:00:00Z,30.6671,-87.9365,1.2,0.1,1111122 
DISL,ioos:station:DISL:MHPA:1,2017-06-03T02:30:00Z,30.6671,-87.9365,1.223,0.1,1111122 
DISL,ioos:station:DISL:MHPA:1,2017-06-03T03:00:00Z,30.6671,-87.9365,1.204,0.1,1111122 
DISL,ioos:station:DISL:MHPA:1,2017-06-03T03:30:00Z,30.6671,-87.9365,1.167,0.1,1111122 
DISL,ioos:station:DISL:MHPA:1,2017-06-03T04:00:00Z,30.6671,-87.9365,1.146,0.1,1111122 
DISL,ioos:station:DISL:MHPA:1,2017-06-03T04:30:00Z,30.6671,-87.9365,1.161,0.1,1111122 
DISL,ioos:station:DISL:MHPA:1,2017-06-03T05:00:00Z,30.6671,-87.9365,1.167,0.1,1111122 
DISL,ioos:station:DISL:MHPA:1,2017-06-03T05:30:00Z,30.6671,-87.9365,1.13,0.1,1111122 
DISL,ioos:station:DISL:MHPA:1,2017-06-03T06:00:00Z,30.6671,-87.9365,1.127,0.1,1111122 
DISL,ioos:station:DISL:MHPA:1,2017-06-03T06:30:00Z,30.6671,-87.9365,1.134,0.1,1111122 
DISL,ioos:station:DISL:MHPA:1,2017-06-03T07:00:00Z,30.6671,-87.9365,1.107,0.1,1111122 
DISL,ioos:station:DISL:MHPA:1,2017-06-03T07:30:00Z,30.6671,-87.9365,1.087,0.1,1111122 
DISL,ioos:station:DISL:MHPA:1,2017-06-03T08:00:00Z,30.6671,-87.9365,1.092,0.1,1111122 
DISL,ioos:station:DISL:MHPA:1,2017-06-03T08:30:00Z,30.6671,-87.9365,1.095,0.1,1111122 
DISL,ioos:station:DISL:MHPA:1,2017-06-03T09:00:00Z,30.6671,-87.9365,1.089,0.1,1111122 
DISL,ioos:station:DISL:MHPA:1,2017-06-03T09:30:00Z,30.6671,-87.9365,1.097,0.1,1111122 
DISL,ioos:station:DISL:MHPA:1,2017-06-03T10:00:00Z,30.6671,-87.9365,1.117,0.1,1111122 
DISL,ioos:station:DISL:MHPA:1,2017-06-03T10:30:00Z,30.6671,-87.9365,1.136,0.1,1111122 
DISL,ioos:station:DISL:MHPA:1,2017-06-03T11:00:00Z,30.6671,-87.9365,1.17,0.1,1111122 
DISL,ioos:station:DISL:MHPA:1,2017-06-03T11:30:00Z,30.6671,-87.9365,1.196,0.1,1111122 
DISL,ioos:station:DISL:MHPA:1,2017-06-03T12:00:00Z,30.6671,-87.9365,1.223,0.1,1111122 
DISL,ioos:station:DISL:MHPA:1,2017-06-03T12:30:00Z,30.6671,-87.9365,1.241,0.1,1111122 
DISL,ioos:station:DISL:MHPA:1,2017-06-03T13:00:00Z,30.6671,-87.9365,1.253,0.1,1111122 
DISL,ioos:station:DISL:MHPA:1,2017-06-03T13:30:00Z,30.6671,-87.9365,1.265,0.1,1111122 
DISL,ioos:station:DISL:MHPA:1,2017-06-03T14:00:00Z,30.6671,-87.9365,1.3,0.1,1111122 
DISL,ioos:station:DISL:MHPA:1,2017-06-03T14:30:00Z,30.6671,-87.9365,1.338,0.1,1111122 
DISL,ioos:station:DISL:MHPA:1,2017-06-03T15:00:00Z,30.6671,-87.9365,1.322,0.1,1111122 
DISL,ioos:station:DISL:MHPA:1,2017-06-03T15:30:00Z,30.6671,-87.9365,1.308,0.1,1111122 
DISL,ioos:station:DISL:MHPA:1,2017-06-03T16:00:00Z,30.6671,-87.9365,1.335,0.1,1111122 
DISL,ioos:station:DISL:MHPA:1,2017-06-03T16:30:00Z,30.6671,-87.9365,1.358,0.1,1111122 
DISL,ioos:station:DISL:MHPA:1,2017-06-03T17:00:00Z,30.6671,-87.9365,1.374,0.1,1111122 
DISL,ioos:station:DISL:MHPA:1,2017-06-03T17:30:00Z,30.6671,-87.9365,1.359,0.1,1111122 
DISL,ioos:station:DISL:MHPA:1,2017-06-03T18:00:00Z,30.6671,-87.9365,1.321,0.1,1111122 
DISL,ioos:station:DISL:MHPA:1,2017-06-03T18:30:00Z,30.6671,-87.9365,1.298,0.1,1111122 
DISL,ioos:station:DISL:MHPA:1,2017-06-03T19:00:00Z,30.6671,-87.9365,1.273,0.1,1111122 
DISL,ioos:station:DISL:MHPA:1,2017-06-03T19:30:00Z,30.6671,-87.9365,1.234,0.1,1111122 
DISL,ioos:station:DISL:MHPA:1,2017-06-03T20:00:00Z,30.6671,-87.9365,1.193,0.1,1111122 
DISL,ioos:station:DISL:MHPA:1,2017-06-03T20:30:00Z,30.6671,-87.9365,1.154,0.1,1111122 
DISL,ioos:station:DISL:MHPA:1,2017-06-03T21:00:00Z,30.6671,-87.9365,1.124,0.1,1111122 
DISL,ioos:station:DISL:MHPA:1,2017-06-03T21:30:00Z,30.6671,-87.9365,1.098,0.1,1111122 
DISL,ioos:station:DISL:MHPA:1,2017-06-03T22:00:00Z,30.6671,-87.9365,1.071,0.1,1111122 
DISL,ioos:station:DISL:MHPA:1,2017-06-03T22:30:00Z,30.6671,-87.9365,1.04,0.1,1111122 
DISL,ioos:station:DISL:MHPA:1,2017-06-03T23:00:00Z,30.6671,-87.9365,1.022,0.1,1111122 
DISL,ioos:station:DISL:MHPA:1,2017-06-03T23:30:00Z,30.6671,-87.9365,1.024,0.1,1111122 
DISL,ioos:station:DISL:MHPA:1,2017-06-04T00:00:00Z,30.6671,-87.9365,1.012,0.1,1111122 
DISL,ioos:station:DISL:MHPA:1,2017-06-04T00:30:00Z,30.6671,-87.9365,0.999,0.1,1111122 
DISL,ioos:station:DISL:MHPA:1,2017-06-04T01:00:00Z,30.6671,-87.9365,0.995,0.1,1111122 
DISL,ioos:station:DISL:MHPA:1,2017-06-04T01:30:00Z,30.6671,-87.9365,0.995,0.1,1111122 
DISL,ioos:station:DISL:MHPA:1,2017-06-04T02:00:00Z,30.6671,-87.9365,1.012,0.1,1111122 
DISL,ioos:station:DISL:MHPA:1,2017-06-04T02:30:00Z,30.6671,-87.9365,1.029,0.1,1111122 
DISL,ioos:station:DISL:MHPA:1,2017-06-04T03:00:00Z,30.6671,-87.9365,1.054,0.1,1111122 
DISL,ioos:station:DISL:MHPA:1,2017-06-04T03:30:00Z,30.6671,-87.9365,1.027,0.1,1111122 
DISL,ioos:station:DISL:MHPA:1,2017-06-04T04:00:00Z,30.6671,-87.9365,1.005,0.1,1111122 
DISL,ioos:station:DISL:MHPA:1,2017-06-04T04:30:00Z,30.6671,-87.9365,1.017,0.1,1111122 
DISL,ioos:station:DISL:MHPA:1,2017-06-04T05:00:00Z,30.6671,-87.9365,1.041,0.1,1111122 
DISL,ioos:station:DISL:MHPA:1,2017-06-04T05:30:00Z,30.6671,-87.9365,1.058,0.1,1111122 
DISL,ioos:station:DISL:MHPA:1,2017-06-04T06:00:00Z,30.6671,-87.9365,1.066,0.1,1111122 
DISL,ioos:station:DISL:MHPA:1,2017-06-04T06:30:00Z,30.6671,-87.9365,1.09,0.1,1111122 
DISL,ioos:station:DISL:MHPA:1,2017-06-04T07:00:00Z,30.6671,-87.9365,1.108,0.1,1111122 
DISL,ioos:station:DISL:MHPA:1,2017-06-04T07:30:00Z,30.6671,-87.9365,1.118,0.1,1111122 
DISL,ioos:station:DISL:MHPA:1,2017-06-04T08:00:00Z,30.6671,-87.9365,1.132,0.1,1111122 
DISL,ioos:station:DISL:MHPA:1,2017-06-04T08:30:00Z,30.6671,-87.9365,1.154,0.1,1111122 
DISL,ioos:station:DISL:MHPA:1,2017-06-04T09:00:00Z,30.6671,-87.9365,1.186,0.1,1111122 
DISL,ioos:station:DISL:MHPA:1,2017-06-04T09:30:00Z,30.6671,-87.9365,1.201,0.1,1111122 
DISL,ioos:station:DISL:MHPA:1,2017-06-04T10:00:00Z,30.6671,-87.9365,1.216,0.1,1111122 
DISL,ioos:station:DISL:MHPA:1,2017-06-04T10:30:00Z,30.6671,-87.9365,1.234,0.1,1111122 
DISL,ioos:station:DISL:MHPA:1,2017-06-04T11:00:00Z,30.6671,-87.9365,1.25,0.1,1111122 
DISL,ioos:station:DISL:MHPA:1,2017-06-04T11:30:00Z,30.6671,-87.9365,1.271,0.1,1111122 
DISL,ioos:station:DISL:MHPA:1,2017-06-04T12:00:00Z,30.6671,-87.9365,1.293,0.1,1111122 
DISL,ioos:station:DISL:MHPA:1,2017-06-04T12:30:00Z,30.6671,-87.9365,1.312,0.1,1111122 
DISL,ioos:station:DISL:MHPA:1,2017-06-04T13:00:00Z,30.6671,-87.9365,1.304,0.1,1111122 
DISL,ioos:station:DISL:MHPA:1,2017-06-04T13:30:00Z,30.6671,-87.9365,1.295,0.1,1111122 
DISL,ioos:station:DISL:MHPA:1,2017-06-04T14:00:00Z,30.6671,-87.9365,1.285,0.11,1111122 
DISL,ioos:station:DISL:MHPA:1,2017-06-04T14:30:00Z,30.6671,-87.9365,1.272,0.11,1111122 
DISL,ioos:station:DISL:MHPA:1,2017-06-04T15:00:00Z,30.6671,-87.9365,1.265,0.1,1111122 
DISL,ioos:station:DISL:MHPA:1,2017-06-04T15:30:00Z,30.6671,-87.9365,1.262,0.1,1111122 
DISL,ioos:station:DISL:MHPA:1,2017-06-04T16:00:00Z,30.6671,-87.9365,1.251,0.1,1111122 
DISL,ioos:station:DISL:MHPA:1,2017-06-04T16:30:00Z,30.6671,-87.9365,1.254,0.1,1111122 
DISL,ioos:station:DISL:MHPA:1,2017-06-04T17:00:00Z,30.6671,-87.9365,1.259,0.1,1111122 
DISL,ioos:station:DISL:MHPA:1,2017-06-04T17:30:00Z,30.6671,-87.9365,1.292,0.1,1111122 
DISL,ioos:station:DISL:MHPA:1,2017-06-04T18:00:00Z,30.6671,-87.9365,1.296,0.11,1111122 
DISL,ioos:station:DISL:MHPA:1,2017-06-04T18:30:00Z,30.6671,-87.9365,1.318,0.1,1111122 
DISL,ioos:station:DISL:MHPA:1,2017-06-04T19:00:00Z,30.6671,-87.9365,1.332,0.1,1111122 
DISL,ioos:station:DISL:MHPA:1,2017-06-04T19:30:00Z,30.6671,-87.9365,1.313,0.1,1111122 
DISL,ioos:station:DISL:MHPA:1,2017-06-04T20:00:00Z,30.6671,-87.9365,1.291,0.1,1111122 
DISL,ioos:station:DISL:MHPA:1,2017-06-04T20:30:00Z,30.6671,-87.9365,1.272,0.1,1111122 
DISL,ioos:station:DISL:MHPA:1,2017-06-04T21:00:00Z,30.6671,-87.9365,1.256,0.1,1111122 
DISL,ioos:station:DISL:MHPA:1,2017-06-04T21:30:00Z,30.6671,-87.9365,1.23,0.1,1111122 
DISL,ioos:station:DISL:MHPA:1,2017-06-04T22:00:00Z,30.6671,-87.9365,1.204,0.1,1111122 
DISL,ioos:station:DISL:MHPA:1,2017-06-04T22:30:00Z,30.6671,-87.9365,1.181,0.1,1111122 
DISL,ioos:station:DISL:MHPA:1,2017-06-04T23:00:00Z,30.6671,-87.9365,1.154,0.1,1111122 
DISL,ioos:station:DISL:MHPA:1,2017-06-04T23:30:00Z,30.6671,-87.9365,1.139,0.1,1111122 
DISL,ioos:station:DISL:MHPA:1,2017-06-05T00:00:00Z,30.6671,-87.9365,1.136,0.1,1111122 
DISL,ioos:station:DISL:MHPA:1,2017-06-05T00:30:00Z,30.6671,-87.9365,1.133,0.1,1111122 
DISL,ioos:station:DISL:MHPA:1,2017-06-05T01:00:00Z,30.6671,-87.9365,1.13,0.1,1111122 
DISL,ioos:station:DISL:MHPA:1,2017-06-05T01:30:00Z,30.6671,-87.9365,1.131,0.1,1111122 
DISL,ioos:station:DISL:MHPA:1,2017-06-05T02:00:00Z,30.6671,-87.9365,1.135,0.11,1111122 
DISL,ioos:station:DISL:MHPA:1,2017-06-05T02:30:00Z,30.6671,-87.9365,1.13,0.11,1111122 
DISL,ioos:station:DISL:MHPA:1,2017-06-05T03:00:00Z,30.6671,-87.9365,1.125,0.11,1111122 
DISL,ioos:station:DISL:MHPA:1,2017-06-05T03:30:00Z,30.6671,-87.9365,1.132,0.11,1111122 
DISL,ioos:station:DISL:MHPA:1,2017-06-05T04:00:00Z,30.6671,-87.9365,1.147,0.1,1111122 
DISL,ioos:station:DISL:MHPA:1,2017-06-05T04:30:00Z,30.6671,-87.9365,1.154,0.11,1111122 
DISL,ioos:station:DISL:MHPA:1,2017-06-05T05:00:00Z,30.6671,-87.9365,1.17,0.11,1111122 
DISL,ioos:station:DISL:MHPA:1,2017-06-05T05:30:00Z,30.6671,-87.9365,1.171,0.11,1111122 
DISL,ioos:station:DISL:MHPA:1,2017-06-05T06:00:00Z,30.6671,-87.9365,1.201,0.11,1111122 
DISL,ioos:station:DISL:MHPA:1,2017-06-05T06:30:00Z,30.6671,-87.9365,1.239,0.11,1111122 
DISL,ioos:station:DISL:MHPA:1,2017-06-05T07:00:00Z,30.6671,-87.9365,1.279,0.1,1111122 
DISL,ioos:station:DISL:MHPA:1,2017-06-05T07:30:00Z,30.6671,-87.9365,1.314,0.11,1111122 
DISL,ioos:station:DISL:MHPA:1,2017-06-05T08:00:00Z,30.6671,-87.9365,1.328,0.11,1111122 
DISL,ioos:station:DISL:MHPA:1,2017-06-05T08:30:00Z,30.6671,-87.9365,1.348,0.1,1111122 
DISL,ioos:station:DISL:MHPA:1,2017-06-05T09:00:00Z,30.6671,-87.9365,1.365,0.11,1111122 
DISL,ioos:station:DISL:MHPA:1,2017-06-05T09:30:00Z,30.6671,-87.9365,1.386,0.11,1111122 
DISL,ioos:station:DISL:MHPA:1,2017-06-05T10:00:00Z,30.6671,-87.9365,1.395,0.11,1111122 
DISL,ioos:station:DISL:MHPA:1,2017-06-05T10:30:00Z,30.6671,-87.9365,1.406,0.11,1111122 
DISL,ioos:station:DISL:MHPA:1,2017-06-05T11:00:00Z,30.6671,-87.9365,1.4,0.1,1111122 
DISL,ioos:station:DISL:MHPA:1,2017-06-05T11:30:00Z,30.6671,-87.9365,1.401,0.1,1111122 
DISL,ioos:station:DISL:MHPA:1,2017-06-05T12:00:00Z,30.6671,-87.9365,1.399,0.1,1111122 
DISL,ioos:station:DISL:MHPA:1,2017-06-05T12:30:00Z,30.6671,-87.9365,1.408,0.1,1111122 
DISL,ioos:station:DISL:MHPA:1,2017-06-05T13:00:00Z,30.6671,-87.9365,1.434,0.1,1111122 
DISL,ioos:station:DISL:MHPA:1,2017-06-05T13:30:00Z,30.6671,-87.9365,1.435,0.1,1111122 
DISL,ioos:station:DISL:MHPA:1,2017-06-05T14:00:00Z,30.6671,-87.9365,1.423,0.1,1111122 
DISL,ioos:station:DISL:MHPA:1,2017-06-05T14:30:00Z,30.6671,-87.9365,1.412,0.1,1111122 
DISL,ioos:station:DISL:MHPA:1,2017-06-05T15:00:00Z,30.6671,-87.9365,1.407,0.1,1111122 
DISL,ioos:station:DISL:MHPA:1,2017-06-05T15:30:00Z,30.6671,-87.9365,1.392,0.1,1111122 
DISL,ioos:station:DISL:MHPA:1,2017-06-05T16:00:00Z,30.6671,-87.9365,1.395,0.11,1111122 
DISL,ioos:station:DISL:MHPA:1,2017-06-05T16:30:00Z,30.6671,-87.9365,1.401,0.11,1111122 
DISL,ioos:station:DISL:MHPA:1,2017-06-05T17:00:00Z,30.6671,-87.9365,1.409,0.11,1111122 
DISL,ioos:station:DISL:MHPA:1,2017-06-05T17:30:00Z,30.6671,-87.9365,1.422,0.1,1111122 
DISL,ioos:station:DISL:MHPA:1,2017-06-05T18:00:00Z,30.6671,-87.9365,1.424,0.1,1111122 
DISL,ioos:station:DISL:MHPA:1,2017-06-05T18:30:00Z,30.6671,-87.9365,1.415,0.1,1111122 
DISL,ioos:station:DISL:MHPA:1,2017-06-05T19:00:00Z,30.6671,-87.9365,1.396,0.1,1111122 
DISL,ioos:station:DISL:MHPA:1,2017-06-05T19:30:00Z,30.6671,-87.9365,1.374,0.1,1111122 
DISL,ioos:station:DISL:MHPA:1,2017-06-05T20:00:00Z,30.6671,-87.9365,1.367,0.1,1111122 
DISL,ioos:station:DISL:MHPA:1,2017-06-05T20:30:00Z,30.6671,-87.9365,1.351,0.1,1111122 
DISL,ioos:station:DISL:MHPA:1,2017-06-05T21:00:00Z,30.6671,-87.9365,1.329,0.1,1111122 
DISL,ioos:station:DISL:MHPA:1,2017-06-05T21:30:00Z,30.6671,-87.9365,1.31,0.1,1111122 
DISL,ioos:station:DISL:MHPA:1,2017-06-05T22:00:00Z,30.6671,-87.9365,1.299,0.1,1111122 
DISL,ioos:station:DISL:MHPA:1,2017-06-05T22:30:00Z,30.6671,-87.9365,1.287,0.1,1111122 
DISL,ioos:station:DISL:MHPA:1,2017-06-05T23:00:00Z,30.6671,-87.9365,1.282,0.1,1111122 
DISL,ioos:station:DISL:MHPA:1,2017-06-05T23:30:00Z,30.6671,-87.9365,1.27,0.1,1111122 
DISL,ioos:station:DISL:MHPA:1,2017-06-06T00:00:00Z,30.6671,-87.9365,1.239,0.1,1111122 
DISL,ioos:station:DISL:MHPA:1,2017-06-06T00:30:00Z,30.6671,-87.9365,1.21,0.1,1111122 
DISL,ioos:station:DISL:MHPA:1,2017-06-06T01:00:00Z,30.6671,-87.9365,1.193,0.1,1111122 
DISL,ioos:station:DISL:MHPA:1,2017-06-06T01:30:00Z,30.6671,-87.9365,1.19,0.1,1111122 
DISL,ioos:station:DISL:MHPA:1,2017-06-06T02:00:00Z,30.6671,-87.9365,1.177,0.1,1111122 
DISL,ioos:station:DISL:MHPA:1,2017-06-06T02:30:00Z,30.6671,-87.9365,1.166,0.1,1111122 
DISL,ioos:station:DISL:MHPA:1,2017-06-06T03:00:00Z,30.6671,-87.9365,1.168,0.11,1111122 
DISL,ioos:station:DISL:MHPA:1,2017-06-06T03:30:00Z,30.6671,-87.9365,1.153,0.11,1111122 
DISL,ioos:station:DISL:MHPA:1,2017-06-06T04:00:00Z,30.6671,-87.9365,1.134,0.11,1111122 
DISL,ioos:station:DISL:MHPA:1,2017-06-06T04:30:00Z,30.6671,-87.9365,1.134,0.1,1111122 
DISL,ioos:station:DISL:MHPA:1,2017-06-06T05:00:00Z,30.6671,-87.9365,1.141,0.11,1111122 
DISL,ioos:station:DISL:MHPA:1,2017-06-06T05:30:00Z,30.6671,-87.9365,1.162,0.11,1111122 
DISL,ioos:station:DISL:MHPA:1,2017-06-06T06:00:00Z,30.6671,-87.9365,1.172,0.1,1111122 
DISL,ioos:station:DISL:MHPA:1,2017-06-06T06:30:00Z,30.6671,-87.9365,1.176,0.1,1111122 
DISL,ioos:station:DISL:MHPA:1,2017-06-06T07:00:00Z,30.6671,-87.9365,1.188,0.1,1111122 
DISL,ioos:station:DISL:MHPA:1,2017-06-06T07:30:00Z,30.6671,-87.9365,1.233,0.1,1111122 
DISL,ioos:station:DISL:MHPA:1,2017-06-06T08:00:00Z,30.6671,-87.9365,1.296,0.1,1111122 
DISL,ioos:station:DISL:MHPA:1,2017-06-06T08:30:00Z,30.6671,-87.9365,1.312,0.1,1111122 
DISL,ioos:station:DISL:MHPA:1,2017-06-06T09:00:00Z,30.6671,-87.9365,1.377,0.1,1111122 
DISL,ioos:station:DISL:MHPA:1,2017-06-06T09:30:00Z,30.6671,-87.9365,1.451,0.1,1111122 
DISL,ioos:station:DISL:MHPA:1,2017-06-06T10:00:00Z,30.6671,-87.9365,1.459,0.1,1111122 
DISL,ioos:station:DISL:MHPA:1,2017-06-06T10:30:00Z,30.6671,-87.9365,1.42,0.1,1111122 
DISL,ioos:station:DISL:MHPA:1,2017-06-06T11:00:00Z,30.6671,-87.9365,1.415,0.1,1111122 
DISL,ioos:station:DISL:MHPA:1,2017-06-06T11:30:00Z,30.6671,-87.9365,1.422,0.1,1111122 
DISL,ioos:station:DISL:MHPA:1,2017-06-06T12:00:00Z,30.6671,-87.9365,1.406,0.1,1111122 
DISL,ioos:station:DISL:MHPA:1,2017-06-06T12:30:00Z,30.6671,-87.9365,1.396,0.1,1111122 
DISL,ioos:station:DISL:MHPA:1,2017-06-06T13:00:00Z,30.6671,-87.9365,1.446,0.1,1111122 
DISL,ioos:station:DISL:MHPA:1,2017-06-06T13:30:00Z,30.6671,-87.9365,1.492,0.1,1111122 
DISL,ioos:station:DISL:MHPA:1,2017-06-06T14:00:00Z,30.6671,-87.9365,1.518,0.1,1111122 
DISL,ioos:station:DISL:MHPA:1,2017-06-06T14:30:00Z,30.6671,-87.9365,1.511,0.1,1111122 
DISL,ioos:station:DISL:MHPA:1,2017-06-06T15:00:00Z,30.6671,-87.9365,1.491,0.1,1111122 
DISL,ioos:station:DISL:MHPA:1,2017-06-06T15:30:00Z,30.6671,-87.9365,1.499,0.1,1111122 
DISL,ioos:station:DISL:MHPA:1,2017-06-06T16:00:00Z,30.6671,-87.9365,1.474,0.1,1111122 
DISL,ioos:station:DISL:MHPA:1,2017-06-06T16:30:00Z,30.6671,-87.9365,1.469,0.1,1111122 
DISL,ioos:station:DISL:MHPA:1,2017-06-06T17:00:00Z,30.6671,-87.9365,1.471,0.1,1111122 
DISL,ioos:station:DISL:MHPA:1,2017-06-06T17:30:00Z,30.6671,-87.9365,1.464,0.1,1111122 
DISL,ioos:station:DISL:MHPA:1,2017-06-06T18:00:00Z,30.6671,-87.9365,1.427,0.1,1111122 
DISL,ioos:station:DISL:MHPA:1,2017-06-06T18:30:00Z,30.6671,-87.9365,1.411,0.1,1111122 